TimeEST,TemperatureF,Dew PointF,Humidity,Sea Level PressureIn,VisibilityMPH,Wind Direction,Wind SpeedMPH,Gust SpeedMPH,PrecipitationIn,Events,Conditions,WindDirDegrees,DateUTC
12:15 AM,62.6,55.4,77,30.16,10.0,NNE,8.1,-,N/A,,Clear,30,2013-01-20 05:15:00
12:35 AM,60.8,55.4,82,30.16,10.0,North,4.6,-,N/A,,Clear,10,2013-01-20 05:35:00
12:55 AM,60.8,55.4,82,30.15,10.0,NNE,6.9,-,N/A,,Clear,30,2013-01-20 05:55:00
1:15 AM,60.8,55.4,82,30.15,10.0,NNE,5.8,-,N/A,,Clear,30,2013-01-20 06:15:00
1:35 AM,60.8,55.4,82,30.14,10.0,NNE,5.8,-,N/A,,Clear,30,2013-01-20 06:35:00
1:55 AM,60.8,55.4,82,30.14,10.0,NNE,5.8,-,N/A,,Clear,30,2013-01-20 06:55:00
2:15 AM,59.0,55.4,88,30.14,10.0,NNE,6.9,-,N/A,,Clear,30,2013-01-20 07:15:00
2:35 AM,59.0,55.4,88,30.14,10.0,North,4.6,-,N/A,,Scattered Clouds,10,2013-01-20 07:35:00
2:55 AM,59.0,57.2,94,30.15,10.0,NNE,3.5,-,N/A,,Mostly Cloudy,30,2013-01-20 07:55:00
3:15 AM,59.0,55.4,88,30.15,7.0,Calm,Calm,-,N/A,,Scattered Clouds,0,2013-01-20 08:15:00
3:35 AM,59.0,55.4,88,30.15,7.0,NNE,3.5,-,N/A,,Scattered Clouds,20,2013-01-20 08:35:00
3:55 AM,59.0,55.4,88,30.14,7.0,NNE,5.8,-,N/A,,Scattered Clouds,20,2013-01-20 08:55:00
4:15 AM,59.0,55.4,88,30.14,7.0,NNE,4.6,-,N/A,,Mostly Cloudy,30,2013-01-20 09:15:00
4:35 AM,59.0,55.4,88,30.13,7.0,NNE,4.6,-,N/A,,Mostly Cloudy,30,2013-01-20 09:35:00
4:55 AM,59.0,55.4,88,30.14,7.0,NNE,4.6,-,N/A,,Mostly Cloudy,20,2013-01-20 09:55:00
5:15 AM,59.0,55.4,88,30.13,7.0,NE,4.6,-,N/A,,Mostly Cloudy,40,2013-01-20 10:15:00
5:35 AM,59.0,55.4,88,30.14,7.0,NNE,3.5,-,N/A,,Overcast,20,2013-01-20 10:35:00
5:50 AM,59.0,57.2,94,30.14,7.0,North,4.6,-,N/A,,Mostly Cloudy,10,2013-01-20 10:50:00
6:50 AM,59.0,57.2,94,30.16,7.0,North,5.8,-,N/A,,Overcast,360,2013-01-20 11:50:00
7:50 AM,59.0,57.2,94,30.17,7.0,NNE,4.6,-,N/A,,Mostly Cloudy,20,2013-01-20 12:50:00
8:55 AM,60.8,57.2,88,30.18,8.0,NNE,4.6,-,N/A,,Mostly Cloudy,30,2013-01-20 13:55:00
9:50 AM,64.4,59.0,83,30.19,10.0,NNE,6.9,-,N/A,,Overcast,30,2013-01-20 14:50:00
10:50 AM,66.2,57.2,73,30.18,10.0,NNE,8.1,-,N/A,,Mostly Cloudy,30,2013-01-20 15:50:00
11:50 AM,66.2,59.0,78,30.16,10.0,ENE,6.9,-,N/A,,Mostly Cloudy,70,2013-01-20 16:50:00
12:51 PM,71.6,59.0,64,30.13,12.0,NE,5.8,-,N/A,,Mostly Cloudy,50,2013-01-20 17:51:00
1:55 PM,73.4,59.0,61,30.09,12.0,NNE,10.4,-,N/A,,Mostly Cloudy,30,2013-01-20 18:55:00
2:50 PM,73.4,57.2,57,30.06,12.0,East,8.1,-,N/A,,Mostly Cloudy,90,2013-01-20 19:50:00
3:50 PM,73.4,57.2,57,30.06,15.0,NE,8.1,-,N/A,,Mostly Cloudy,50,2013-01-20 20:50:00
4:50 PM,73.4,57.2,57,30.07,15.0,East,6.9,-,N/A,,Mostly Cloudy,90,2013-01-20 21:50:00
5:50 PM,71.6,59.0,64,30.08,12.0,ENE,5.8,-,N/A,,Mostly Cloudy,60,2013-01-20 22:50:00
6:52 PM,66.2,57.2,73,30.08,12.0,NE,3.5,-,N/A,,Mostly Cloudy,50,2013-01-20 23:52:00
7:55 PM,66.2,59.0,78,30.10,12.0,East,6.9,-,N/A,,Mostly Cloudy,80,2013-01-21 00:55:00
8:50 PM,64.4,57.2,77,30.11,12.0,ENE,5.8,-,N/A,,Scattered Clouds,70,2013-01-21 01:50:00
9:50 PM,64.4,55.4,73,30.12,12.0,ENE,10.4,-,N/A,,Mostly Cloudy,70,2013-01-21 02:50:00
9:55 PM,62.6,55.4,77,30.12,10.0,ENE,9.2,-,N/A,,Scattered Clouds,70,2013-01-21 02:55:00
10:15 PM,62.6,53.6,72,30.12,10.0,East,6.9,-,N/A,,Scattered Clouds,90,2013-01-21 03:15:00
10:35 PM,62.6,53.6,72,30.12,10.0,ENE,9.2,-,N/A,,Overcast,60,2013-01-21 03:35:00
10:55 PM,62.6,53.6,72,30.12,10.0,ENE,6.9,-,N/A,,Overcast,70,2013-01-21 03:55:00
11:15 PM,62.6,53.6,72,30.12,10.0,ENE,4.6,-,N/A,,Overcast,60,2013-01-21 04:15:00
11:35 PM,62.6,53.6,72,30.11,10.0,NE,4.6,-,N/A,,Overcast,50,2013-01-21 04:35:00
11:55 PM,62.6,53.6,72,30.11,10.0,NE,5.8,-,N/A,,Overcast,50,2013-01-21 04:55:00